User: anonymous   Login
Location: Newark
(44.0692°N, 7.2567°E)
Time: 02:19:47
(UTC+00:00)
Language:

Oscar 11 - Orbit

View from above orbital plane
View from above orbital plane
View from above satellite
View from above satellite

Ground track
Ground track

The orbit data is extracted from the following two-line orbital elements,

1 14781U 84021B   19293.09873719  .00000065  00000-0  14065-4 0  9995
2 14781  97.6046 311.9365 0006995 275.4150  84.6267 14.83113225917051
Epoch (UTC): 20 October 2019 02:22:10
Eccentricity: 0.0006995
inclination: 97.6046°
perigee height: 614 km
apogee height: 624 km
right ascension of ascending node: 311.9365°
argument of perigee: 275.4150°
revolutions per day: 14.83113225
mean anomaly at epoch: 84.6267°
orbit number at epoch: 91705

The dashed part of the orbit path shows where the satellite is in the earth's shadow,  

DLR